• In Hungary
  • List of Countries
  • For 7 days
  • Water Temperature
  • Satellite Maps
  • Weather Map
  • News
  • Weather Widgets
  • user-avatar
    Login

    Hourly Weather Oruro

    Today, 16 August, Thursday

    Time Temperature Precipitation Wind Pressure Humidity
    00:00 +3°C° 0 mm 2 mps 475 mmHg 59%
    01:00 +3°C° 0 mm 2 mps 475 mmHg 63%
    02:00 +2°C° 0 mm 2 mps 474 mmHg 70%
    03:00 +2°C° 0 mm 2 mps 474 mmHg 71%
    04:00 +1°C° 0 mm 2 mps 473 mmHg 71%
    05:00 +1°C° 0 mm 2 mps 473 mmHg 71%
    06:00 +1°C° 0 mm 2 mps 474 mmHg 63%
    07:00 +2°C° 0 mm 2 mps 475 mmHg 55%
    08:00 +3°C° 0 mm 2 mps 475 mmHg 47%
    09:00 +4°C° 0 mm 3 mps 477 mmHg 38%
    10:00 +7°C° 0 mm 3 mps 478 mmHg 29%
    11:00 +9°C° 0 mm 3 mps 479 mmHg 20%
    12:00 +10°C° 0 mm 4 mps 479 mmHg 17%
    13:00 +11°C° 0 mm 4 mps 479 mmHg 13%
    14:00 +12°C° 0 mm 4 mps 480 mmHg 10%
    15:00 +12°C° 0 mm 4 mps 479 mmHg 11%
    16:00 +12°C° 0 mm 4 mps 479 mmHg 11%
    17:00 +12°C° 0 mm 4 mps 479 mmHg 12%
    18:00 +10°C° 0 mm 4 mps 478 mmHg 21%
    19:00 +8°C° 0 mm 4 mps 477 mmHg 30%
    20:00 +6°C° 0 mm 4 mps 477 mmHg 39%
    21:00 +5°C° 0 mm 4 mps 476 mmHg 45%
    22:00 +4°C° 0 mm 3 mps 476 mmHg 52%
    23:00 +4°C° 0 mm 2 mps 476 mmHg 59%

    Tomorrow, 17 August, Friday

    Time Temperature Precipitation Wind Pressure Humidity
    00:00 +4°C° 0 mm 2 mps 476 mmHg 60%
    01:00 +3°C° 0 mm 2 mps 476 mmHg 61%
    02:00 +3°C° 0 mm 2 mps 475 mmHg 62%
    03:00 +2°C° 0 mm 2 mps 475 mmHg 63%
    04:00 +2°C° 0 mm 2 mps 474 mmHg 63%
    05:00 +1°C° 0 mm 2 mps 474 mmHg 63%
    06:00 +2°C° 0 mm 2 mps 475 mmHg 58%
    07:00 +2°C° 0 mm 3 mps 475 mmHg 52%
    08:00 +2°C° 0 mm 3 mps 476 mmHg 47%
    09:00 +5°C° 0 mm 3 mps 477 mmHg 38%
    10:00 +7°C° 0 mm 4 mps 479 mmHg 30%
    11:00 +10°C° 0 mm 4 mps 480 mmHg 21%
    12:00 +11°C° 0 mm 4 mps 480 mmHg 17%
    13:00 +12°C° 0 mm 4 mps 480 mmHg 14%
    14:00 +13°C° 0 mm 4 mps 480 mmHg 10%
    15:00 +13°C° 0 mm 4 mps 480 mmHg 10%
    16:00 +13°C° 0 mm 4 mps 479 mmHg 11%
    17:00 +13°C° 0 mm 4 mps 479 mmHg 11%
    18:00 +11°C° 0 mm 3 mps 478 mmHg 18%
    19:00 +9°C° 0 mm 3 mps 477 mmHg 26%
    20:00 +7°C° 0 mm 3 mps 476 mmHg 33%
    21:00 +5°C° 0 mm 3 mps 476 mmHg 41%
    22:00 +5°C° 0 mm 2 mps 476 mmHg 50%
    23:00 +5°C° 0 mm 2 mps 476 mmHg 58%

    Day after tomorrow, 18 August, Saturday

    Time Temperature Precipitation Wind Pressure Humidity
    00:00 +4°C° 0 mm 2 mps 475 mmHg 61%
    01:00 +4°C° 0 mm 2 mps 475 mmHg 65%
    02:00 +3°C° 0 mm 2 mps 474 mmHg 69%
    03:00 +3°C° 0 mm 2 mps 474 mmHg 67%
    04:00 +2°C° 0 mm 2 mps 473 mmHg 65%
    05:00 +2°C° 0 mm 2 mps 473 mmHg 64%
    06:00 +2°C° 0 mm 2 mps 474 mmHg 58%
    07:00 +2°C° 0 mm 3 mps 474 mmHg 53%
    08:00 +2°C° 0 mm 3 mps 475 mmHg 48%
    09:00 +5°C° 0 mm 3 mps 476 mmHg 38%
    10:00 +8°C° 0 mm 3 mps 478 mmHg 29%
    11:00 +10°C° 0 mm 3 mps 479 mmHg 20%
    12:00 +11°C° 0 mm 3 mps 479 mmHg 17%
    13:00 +12°C° 0 mm 3 mps 479 mmHg 14%
    14:00 +13°C° 0 mm 3 mps 479 mmHg 10%
    15:00 +13°C° 0 mm 3 mps 478 mmHg 10%
    16:00 +13°C° 0 mm 3 mps 478 mmHg 10%
    17:00 +13°C° 0 mm 3 mps 478 mmHg 10%
    18:00 +11°C° 0 mm 3 mps 477 mmHg 17%
    19:00 +9°C° 0 mm 2 mps 476 mmHg 23%
    20:00 +7°C° 0 mm 2 mps 475 mmHg 29%
    21:00 +7°C° 0 mm 2 mps 475 mmHg 36%
    22:00 +6°C° 0 mm 2 mps 475 mmHg 43%
    23:00 +5°C° 0 mm 2 mps 475 mmHg 50%

    19 August, Sunday

    Time Temperature Precipitation Wind Pressure Humidity
    00:00 +5°C° 0 mm 2 mps 474 mmHg 55%
    01:00 +4°C° 0 mm 2 mps 474 mmHg 60%
    02:00 +4°C° 0 mm 2 mps 473 mmHg 64%
    03:00 +3°C° 0 mm 2 mps 473 mmHg 65%
    04:00 +3°C° 0 mm 2 mps 473 mmHg 66%
    05:00 +2°C° 0 mm 2 mps 472 mmHg 67%
    06:00 +3°C° 0 mm 2 mps 473 mmHg 62%
    07:00 +3°C° 0 mm 2 mps 475 mmHg 56%
    08:00 +4°C° 0 mm 2 mps 476 mmHg 50%
    09:00 +5°C° 0 mm 3 mps 477 mmHg 40%
    10:00 +7°C° 0 mm 4 mps 478 mmHg 30%
    11:00 +11°C° 0 mm 4 mps 479 mmHg 20%
    12:00 +12°C° 0 mm 5 mps 479 mmHg 19%
    13:00 +13°C° 0 mm 5 mps 479 mmHg 18%
    14:00 +14°C° 0 mm 6 mps 479 mmHg 17%
    15:00 +13°C° 0 mm 6 mps 479 mmHg 22%
    16:00 +13°C° 0 mm 6 mps 478 mmHg 26%
    17:00 +11°C° 0 mm 7 mps 478 mmHg 30%
    18:00 +10°C° 0 mm 7 mps 477 mmHg 40%
    19:00 +8°C° 0 mm 7 mps 477 mmHg 50%
    20:00 +5°C° 0 mm 7 mps 476 mmHg 59%
    21:00 +5°C° 0 mm 6 mps 476 mmHg 62%
    22:00 +5°C° 0 mm 5 mps 476 mmHg 64%
    23:00 +4°C° 0 mm 4 mps 476 mmHg 66%

    20 August, Monday

    Time Temperature Precipitation Wind Pressure Humidity
    00:00 +4°C° 0 mm 4 mps 475 mmHg 68%
    01:00 +3°C° 0 mm 3 mps 475 mmHg 70%
    02:00 +3°C° 0 mm 3 mps 475 mmHg 71%
    03:00 +3°C° 0 mm 3 mps 474 mmHg 73%
    04:00 +2°C° 0 mm 3 mps 474 mmHg 74%
    05:00 +2°C° 0 mm 3 mps 474 mmHg 75%
    06:00 +3°C° 0 mm 3 mps 475 mmHg 73%
    07:00 +3°C° 0 mm 3 mps 475 mmHg 70%
    08:00 +4°C° 0 mm 3 mps 476 mmHg 68%
    09:00 +5°C° 0.1 mm 3 mps 477 mmHg 60%
    10:00 +7°C° 0.1 mm 4 mps 478 mmHg 53%
    11:00 +8°C° 0.1 mm 5 mps 479 mmHg 45%
    12:00 +8°C° 0.2 mm 4 mps 479 mmHg 45%
    13:00 +10°C° 0.2 mm 4 mps 478 mmHg 45%
    14:00 +10°C° 0.2 mm 4 mps 478 mmHg 45%
    15:00 +10°C° 0.2 mm 4 mps 477 mmHg 47%
    16:00 +10°C° 0.2 mm 4 mps 477 mmHg 48%
    17:00 +10°C° 0.2 mm 4 mps 477 mmHg 50%
    18:00 +8°C° 0.5 mm 4 mps 477 mmHg 55%
    19:00 +7°C° 0.5 mm 4 mps 476 mmHg 60%
    20:00 +5°C° 0.5 mm 4 mps 476 mmHg 65%
    21:00 +5°C° 0.1 mm 4 mps 476 mmHg 66%
    22:00 +4°C° 0.1 mm 3 mps 476 mmHg 68%
    23:00 +4°C° 0.1 mm 3 mps 476 mmHg 70%

    21 August, Tuesday

    Time Temperature Precipitation Wind Pressure Humidity
    00:00 +4°C° 0 mm 3 mps 476 mmHg 71%
    01:00 +3°C° 0 mm 3 mps 475 mmHg 73%
    02:00 +3°C° 0 mm 3 mps 475 mmHg 74%
    03:00 +3°C° 0 mm 2 mps 475 mmHg 76%
    04:00 +3°C° 0 mm 2 mps 474 mmHg 77%
    05:00 +3°C° 0 mm 2 mps 474 mmHg 79%
    06:00 +3°C° 0 mm 2 mps 475 mmHg 75%
    07:00 +3°C° 0 mm 2 mps 475 mmHg 71%
    08:00 +4°C° 0 mm 2 mps 476 mmHg 68%
    09:00 +5°C° 0 mm 3 mps 477 mmHg 57%
    10:00 +7°C° 0 mm 4 mps 478 mmHg 47%
    11:00 +8°C° 0 mm 4 mps 479 mmHg 36%
    12:00 +10°C° 0 mm 5 mps 479 mmHg 31%
    13:00 +12°C° 0 mm 5 mps 479 mmHg 26%
    14:00 +13°C° 0 mm 6 mps 479 mmHg 22%
    15:00 +13°C° 0 mm 6 mps 479 mmHg 23%
    16:00 +11°C° 0 mm 6 mps 478 mmHg 24%
    17:00 +11°C° 0 mm 6 mps 478 mmHg 26%
    18:00 +10°C° 0 mm 5 mps 477 mmHg 34%
    19:00 +8°C° 0 mm 5 mps 477 mmHg 43%
    20:00 +6°C° 0 mm 4 mps 476 mmHg 51%
    21:00 +6°C° 0 mm 4 mps 476 mmHg 55%
    22:00 +5°C° 0 mm 3 mps 476 mmHg 59%
    23:00 +5°C° 0 mm 2 mps 476 mmHg 63%
    Show more